When you browse on this site, cookies collect data to enhance your experience and personalize the content and advertising you see.
Visit our Privacy Policy to learn more. By continuing to use the site, you agree to this use of cookies and data.
  • In Lithuania
  • List of Countries
  • For 7 days
  • Water Temperature
  • Satellite Maps
  • Weather Map
  • Weather Widgets
  • user-avatar
    Login

    Hourly Weather Nevdahin

    Today, 11 December, Tuesday

    Time Temperature Precipitation Wind Pressure Humidity
    00:00 +4°C° 0 mm 4 mps 750 mmHg 88%
    01:00 +4°C° 0 mm 4 mps 750 mmHg 89%
    02:00 +3°C° 0 mm 4 mps 750 mmHg 90%
    03:00 +3°C° 0 mm 4 mps 750 mmHg 91%
    04:00 +3°C° 0 mm 4 mps 750 mmHg 91%
    05:00 +3°C° 0 mm 4 mps 749 mmHg 91%
    06:00 +3°C° 0 mm 4 mps 749 mmHg 90%
    07:00 +2°C° 0 mm 5 mps 749 mmHg 90%
    08:00 +3°C° 0 mm 5 mps 749 mmHg 89%
    09:00 +3°C° 0 mm 5 mps 748 mmHg 89%
    10:00 +4°C° 0 mm 6 mps 748 mmHg 86%
    11:00 +5°C° 0 mm 6 mps 747 mmHg 82%
    12:00 +6°C° 0 mm 7 mps 746 mmHg 79%
    13:00 +6°C° 0 mm 7 mps 746 mmHg 80%
    14:00 +6°C° 0 mm 7 mps 745 mmHg 80%
    15:00 +6°C° 0 mm 7 mps 745 mmHg 80%
    16:00 +7°C° 0 mm 6 mps 745 mmHg 83%
    17:00 +6°C° 0 mm 4 mps 745 mmHg 85%
    18:00 +7°C° 0 mm 3 mps 746 mmHg 88%
    19:00 +7°C° 0.4 mm 3 mps 746 mmHg 90%
    20:00 +7°C° 0.4 mm 2 mps 746 mmHg 92%
    21:00 +6°C° 0.4 mm 2 mps 747 mmHg 93%
    22:00 +6°C° 0.5 mm 2 mps 747 mmHg 94%
    23:00 +6°C° 0.5 mm 2 mps 748 mmHg 94%

    Tomorrow, 12 December, Wednesday

    Time Temperature Precipitation Wind Pressure Humidity
    00:00 +6°C° 0.5 mm 2 mps 748 mmHg 94%
    01:00 +7°C° 0 mm 1 mps 748 mmHg 93%
    02:00 +7°C° 0 mm 1 mps 749 mmHg 93%
    03:00 +7°C° 0 mm 1 mps 749 mmHg 92%
    04:00 +7°C° 0 mm 1 mps 749 mmHg 92%
    05:00 +6°C° 0 mm 2 mps 750 mmHg 92%
    06:00 +6°C° 0 mm 2 mps 750 mmHg 91%
    07:00 +6°C° 0 mm 2 mps 750 mmHg 90%
    08:00 +6°C° 0 mm 2 mps 751 mmHg 90%
    09:00 +6°C° 0 mm 2 mps 751 mmHg 89%
    10:00 +7°C° 0.1 mm 2 mps 751 mmHg 83%
    11:00 +8°C° 0.1 mm 3 mps 751 mmHg 76%
    12:00 +10°C° 0.1 mm 3 mps 751 mmHg 70%
    13:00 +10°C° 0.1 mm 2 mps 751 mmHg 70%
    14:00 +10°C° 0.1 mm 2 mps 750 mmHg 71%
    15:00 +11°C° 0.1 mm 1 mps 750 mmHg 71%
    16:00 +10°C° 0.1 mm 1 mps 750 mmHg 74%
    17:00 +9°C° 0.1 mm 1 mps 751 mmHg 78%
    18:00 +9°C° 0.1 mm 1 mps 751 mmHg 81%
    19:00 +7°C° 0.3 mm 2 mps 751 mmHg 83%
    20:00 +7°C° 0.3 mm 2 mps 751 mmHg 86%
    21:00 +7°C° 0.3 mm 2 mps 751 mmHg 88%
    22:00 +7°C° 0.6 mm 2 mps 751 mmHg 89%
    23:00 +7°C° 0.6 mm 2 mps 751 mmHg 90%

    Day after tomorrow, 13 December, Thursday

    Time Temperature Precipitation Wind Pressure Humidity
    00:00 +6°C° 0.6 mm 2 mps 751 mmHg 90%
    01:00 +6°C° 0.9 mm 2 mps 751 mmHg 91%
    02:00 +6°C° 0.9 mm 2 mps 752 mmHg 92%
    03:00 +6°C° 0.9 mm 2 mps 752 mmHg 92%
    04:00 +5°C° 1.1 mm 2 mps 752 mmHg 92%
    05:00 +5°C° 1.1 mm 2 mps 752 mmHg 92%
    06:00 +5°C° 1.1 mm 2 mps 753 mmHg 92%
    07:00 +5°C° 1.1 mm 2 mps 753 mmHg 92%
    08:00 +5°C° 1.1 mm 2 mps 754 mmHg 92%
    09:00 +4°C° 1.1 mm 2 mps 754 mmHg 91%
    10:00 +3°C° 0.7 mm 3 mps 755 mmHg 89%
    11:00 +3°C° 0.7 mm 3 mps 755 mmHg 87%
    12:00 +3°C° 0.7 mm 4 mps 755 mmHg 85%
    13:00 +3°C° 0.1 mm 3 mps 755 mmHg 83%
    14:00 +3°C° 0.1 mm 3 mps 756 mmHg 81%
    15:00 +3°C° 0.1 mm 3 mps 756 mmHg 79%
    16:00 +4°C° 0 mm 2 mps 757 mmHg 81%
    17:00 +4°C° 0 mm 2 mps 757 mmHg 83%
    18:00 +4°C° 0 mm 1 mps 758 mmHg 85%
    19:00 +4°C° 0 mm 1 mps 758 mmHg 86%
    20:00 +4°C° 0 mm 1 mps 758 mmHg 87%
    21:00 +2°C° 0 mm 0 mps 759 mmHg 88%
    22:00 +3°C° 0 mm 1 mps 759 mmHg 88%
    23:00 +3°C° 0 mm 1 mps 759 mmHg 88%

    14 December, Friday

    Time Temperature Precipitation Wind Pressure Humidity
    00:00 +3°C° 0 mm 1 mps 759 mmHg 88%
    01:00 +3°C° 0 mm 1 mps 759 mmHg 87%
    02:00 +3°C° 0 mm 1 mps 759 mmHg 87%
    03:00 +2°C° 0 mm 1 mps 760 mmHg 86%
    04:00 +2°C° 0 mm 1 mps 760 mmHg 84%
    05:00 +2°C° 0 mm 1 mps 759 mmHg 82%
    06:00 +2°C° 0 mm 1 mps 759 mmHg 81%
    07:00 +3°C° 0 mm 1 mps 760 mmHg 79%
    08:00 +2°C° 0 mm 2 mps 760 mmHg 77%
    09:00 +2°C° 0 mm 2 mps 760 mmHg 75%
    10:00 +3°C° 0 mm 2 mps 759 mmHg 71%
    11:00 +4°C° 0 mm 2 mps 759 mmHg 67%
    12:00 +5°C° 0 mm 3 mps 759 mmHg 63%
    13:00 +4°C° 0 mm 3 mps 759 mmHg 64%
    14:00 +4°C° 0 mm 3 mps 758 mmHg 65%
    15:00 +4°C° 0 mm 3 mps 758 mmHg 66%
    16:00 +4°C° 0 mm 3 mps 758 mmHg 70%
    17:00 +3°C° 0 mm 3 mps 759 mmHg 74%
    18:00 +2°C° 0 mm 3 mps 759 mmHg 77%
    19:00 +2°C° 0 mm 3 mps 759 mmHg 78%
    20:00 +2°C° 0 mm 3 mps 759 mmHg 79%
    21:00 +2°C° 0 mm 3 mps 759 mmHg 79%
    22:00 +1°C° 0 mm 3 mps 759 mmHg 80%
    23:00 +1°C° 0 mm 3 mps 759 mmHg 82%

    15 December, Saturday

    Time Temperature Precipitation Wind Pressure Humidity
    00:00 +1°C° 0 mm 3 mps 759 mmHg 83%
    01:00 +1°C° 0 mm 3 mps 759 mmHg 83%
    02:00 +1°C° 0 mm 3 mps 760 mmHg 83%
    03:00 0°C° 0 mm 3 mps 760 mmHg 84%
    04:00 0°C° 0 mm 3 mps 760 mmHg 84%
    05:00 0°C° 0 mm 3 mps 760 mmHg 84%
    06:00 0°C° 0 mm 3 mps 760 mmHg 85%
    07:00 0°C° 0 mm 3 mps 760 mmHg 83%
    08:00 +1°C° 0 mm 3 mps 760 mmHg 82%
    09:00 +1°C° 0 mm 3 mps 760 mmHg 81%
    10:00 +2°C° 0.1 mm 3 mps 760 mmHg 78%
    11:00 +4°C° 0.1 mm 2 mps 760 mmHg 75%
    12:00 +4°C° 0.1 mm 2 mps 760 mmHg 72%
    13:00 +4°C° 0.1 mm 2 mps 760 mmHg 74%
    14:00 +5°C° 0.1 mm 2 mps 761 mmHg 75%
    15:00 +5°C° 0.1 mm 2 mps 761 mmHg 77%
    16:00 +4°C° 0.1 mm 2 mps 761 mmHg 78%
    17:00 +4°C° 0.1 mm 2 mps 761 mmHg 80%
    18:00 +3°C° 0.1 mm 2 mps 762 mmHg 82%
    19:00 +3°C° 0 mm 2 mps 762 mmHg 83%
    20:00 +3°C° 0 mm 2 mps 762 mmHg 84%
    21:00 +3°C° 0 mm 2 mps 762 mmHg 85%
    22:00 +3°C° 0.1 mm 2 mps 762 mmHg 87%
    23:00 +2°C° 0.1 mm 2 mps 762 mmHg 89%

    16 December, Sunday

    Time Temperature Precipitation Wind Pressure Humidity
    00:00 +2°C° 0.1 mm 2 mps 763 mmHg 91%
    01:00 +2°C° 0.1 mm 2 mps 763 mmHg 92%
    02:00 +2°C° 0.1 mm 2 mps 763 mmHg 93%
    03:00 +2°C° 0.1 mm 2 mps 763 mmHg 94%
    04:00 +1°C° 0 mm 2 mps 764 mmHg 95%
    05:00 +1°C° 0 mm 2 mps 764 mmHg 95%
    06:00 -1°C° 0 mm 2 mps 764 mmHg 95%
    07:00 -1°C° 0 mm 2 mps 764 mmHg 93%
    08:00 +1°C° 0 mm 2 mps 765 mmHg 92%
    09:00 +1°C° 0 mm 2 mps 765 mmHg 90%
    10:00 +1°C° 0 mm 2 mps 765 mmHg 87%
    11:00 +2°C° 0 mm 2 mps 765 mmHg 84%
    12:00 +2°C° 0 mm 2 mps 765 mmHg 80%
    13:00 +2°C° 0 mm 2 mps 765 mmHg 80%
    14:00 +2°C° 0 mm 2 mps 765 mmHg 80%
    15:00 +2°C° 0 mm 2 mps 765 mmHg 80%
    16:00 +1°C° 0 mm 2 mps 765 mmHg 82%
    17:00 +1°C° 0 mm 2 mps 765 mmHg 85%
    18:00 -1°C° 0 mm 2 mps 766 mmHg 88%
    19:00 -1°C° 0 mm 2 mps 766 mmHg 88%
    20:00 -1°C° 0 mm 2 mps 765 mmHg 89%
    21:00 -1°C° 0 mm 2 mps 765 mmHg 89%
    22:00 -2°C° 0 mm 2 mps 765 mmHg 88%
    23:00 -2°C° 0 mm 2 mps 765 mmHg 87%
    Show more